THOR ABLESTAR DEB, 3164

Orbit data source: Space-Track

THOR ABLESTAR DEB, 3164 is space debris in LEO originally from a launch on Thu, 29 Jun 1961 UTC launched from the Air Force Eastern Test Range (AFETR). Debris objects in space refer to the collection of defunct objects orbiting the Earth. Examples of debris include non-operational satellites, rocket bodies, and fragments generated from explosions, collisions, or faulty payload assembly.

Loading next visibility...
Identifier
3164, 1961-015HZ
Orbit
LEO
Country
Flag of USUS
Related business
Manufacturer
Unknown
Mission
Spacecraft
Bus & Motor
Unknown
Mass
Unknown
Launch date (UTC)
1961-06-29 (65 years ago)
Launch vehicle
Unknown
Launch site
Air Force Eastern Test Range (AFETR)
Object type
Payload
Rocket body
Debris
Shape & HBR
Unknown shape, 1.1 m
Radar Cross Section
Small (<0.1 m²)

Expand to show TLE details & history
Last TLE update: 19 hours ago

TLE from 19 hours ago
0 THOR ABLESTAR DEB
1  3164U 61015HZ  26118.35071916  .00000804  00000-0  55073-3 0  9992
2  3164  66.7468 214.4770 0040375  80.8128 279.7521 14.04359198 80818
Epoch: 2026-04-28T08:25Z
TLE epoch observation values (Epoch: 2026-04-28T08:25:02.135Z)
Latitude
-0.00004°
Longitude
-128.1092°
Altitude
875.976 km
Speed
7.417 km/s
True Right ascension
14h 17m 54s
True Declination
0° 00' 00"
Sunlit
Object was in full shadow at epoch
Visualization orbit readout
Latitude
Unknown
Longitude
Unknown
Altitude
Unknown
Speed
Unknown
Apparent Right ascension
Unknown
Apparent Declination
Unknown
Sunlit
N/A
Visualization observer readout
Local Sidereal Time
11:03:22
Azimuth
Unknown
Elevation
Unknown
Doppler factor
Unknown
Orbital elements
Apogee altitude
906.421 km
Perigee altitude
847.835 km
Semi-major axis
7,255.265 km
Eccentricity
0.00404
Inclination
66.7468°
RAAN
214.477°
Arg. of periapsis
80.8128°
True anomaly
279.29574°
Mean anomaly
279.7521°
Eccentric anomaly
279.52396°
Mean motion
3.51207 °/min
Orbital period
102.5 mins
BSTAR
0.00055073
Loading maneuver chart data...
Computing Atmospheric mass density...
Loading historical data...
Loading historical data...
Loading historical data...
Loading historical data...
Loading historical data...
Loading historical data...
Loading historical data...

Documentation

Showing up to 5 results
|